GFSNE_2pvu_pres_003.txt.gz
Presure
183 190 189 180 183 182 191 204 198 189 209 232 268 228 283 263 247 210 199 194 211 219 197 226 234 299 359 383 296 293 253 250 252 251 250 239 239 228
189 183 181 178 196 186 157 199 206 220 244 221 153 219 205 124 200 224 230 242 265 346 359 465 574 648 648 636 613 574 538 524 526 524 516 509 422 346
176 181 187 189 190 201 201 216 224 270 255 266 250 211 211 226 232 71 317 348 360 550 530 506 480 573 626 628 604 587 564 535 505 493 502 501 493 488
183 194 197 197 202 204 218 166 262 251 263 163 193 216 226 245 315 341 469 519 503 87 467 445 201 505 522 533 545 554 554 546 537 509 497 482 469 453
196 196 199 196 212 176 259 248 265 193 204 213 224 235 271 333 382 518 504 460 448 463 397 427 312 391 439 443 449 462 469 467 478 490 486 465 432 420
202 199 198 189 232 254 259 252 216 208 220 230 247 324 339 521 511 473 435 447 384 425 460 459 413 395 366 352 349 351 355 362 376 413 412 421 428 435
191 176 223 259 235 261 236 201 165 225 239 256 326 385 535 498 436 406 378 401 375 369 377 333 338 347 348 353 346 340 340 347 340 339 344 354 360 363
212 229 251 259 142 215 208 211 228 242 264 327 490 531 490 420 381 361 380 354 340 331 328 337 331 327 334 333 330 336 340 353 352 358 354 353 356 359
261 231 139 163 208 207 222 223 243 317 330 492 542 468 405 377 353 346 338 341 357 332 317 323 318 321 314 310 329 338 344 363 369 366 366 365 362 357
204 140 205 208 212 221 234 253 309 331 475 527 450 398 379 360 341 330 329 336 334 323 306 309 315 317 312 310 327 349 366 376 365 368 369 368 350 335
199 178 204 214 215 236 280 308 338 459 508 429 390 381 370 350 331 319 325 323 317 323 307 305 305 309 306 298 347 380 373 367 365 372 451 349 354 360
202 204 207 231 244 315 312 436 440 485 405 380 378 368 350 334 311 327 319 310 304 304 304 301 302 294 306 319 380 368 384 432 442 355 341 345 327 330
217 214 234 246 315 323 445 413 438 400 375 372 363 340 323 328 329 328 316 305 304 306 300 298 297 299 308 383 359 385 371 352 359 351 346 343 329 343
226 238 267 311 332 434 434 360 390 373 362 353 334 318 327 322 318 310 311 307 299 299 302 301 296 295 329 375 358 385 380 367 350 327 343 354 348 408
237 302 315 414 428 484 415 383 365 347 344 324 314 324 312 303 303 307 307 310 299 295 301 299 287 302 338 356 370 360 332 327 328 333 361 403 423 368
307 317 450 499 468 407 381 364 350 344 340 320 312 302 283 291 290 283 285 296 302 303 300 297 284 304 337 360 355 355 318 313 350 299 386 410 366 390
324 490 514 447 399 377 362 351 347 337 321 303 295 295 293 294 288 280 285 279 294 303 302 291 286 301 335 367 349 343 328 343 341 369 382 381 367 384
543 495 424 389 363 346 332 321 308 305 305 306 305 302 306 291 315 303 292 287 282 298 303 288 288 304 335 373 341 348 324 310 361 374 380 365 373 380
443 400 374 350 332 318 304 306 315 322 321 309 450 437 389 366 366 298 298 265 278 293 303 288 290 307 344 378 343 324 282 292 323 378 381 379 377 379
390 365 340 321 307 301 325 317 309 246 376 392 292 411 404 405 422 377 331 279 265 274 299 288 290 303 348 378 342 318 294 289 291 376 377 378 376 378
360 333 316 302 311 318 373 319 241 330 374 382 404 398 389 388 392 408 372 285 283 271 272 288 291 307 349 357 328 289 298 293 336 384 399 356 372 411
332 314 301 318 320 365 305 239 374 378 379 379 393 389 388 388 391 398 375 385 288 275 270 286 294 308 352 315 296 288 292 290 347 373 405 348 354 362
315 299 315 320 357 254 238 347 366 370 375 378 382 391 384 387 402 397 368 381 292 254 264 282 293 317 375 297 288 289 289 342 340 356 383 341 343 348

GFSNE_2pvu_pres_009.txt.gz
Presure
181 181 179 183 178 182 179 195 201 198 191 187 192 196 197 196 202 206 211 217 225 256 197 182 214 210 226 233 239 233 256 262 321 363 380 201 370 342
189 181 180 178 183 180 182 196 191 192 197 191 193 195 133 209 214 221 237 293 180 209 205 152 129 240 245 256 381 525 496 401 481 477 499 546 559 532
196 185 184 185 184 182 173 192 194 195 204 193 150 210 215 225 252 274 168 197 213 220 242 248 257 266 542 468 467 454 444 430 475 481 481 455 417 416
198 195 183 183 186 174 191 198 184 192 133 201 212 221 244 244 178 240 217 223 182 254 260 530 525 481 377 429 416 384 373 378 360 383 388 399 386 382
198 193 183 186 191 189 193 183 123 204 197 220 237 257 180 243 204 224 236 250 257 395 506 486 440 410 395 387 363 359 356 345 337 342 347 354 350 348
200 183 189 189 191 191 157 193 207 196 166 240 176 223 181 220 232 243 251 402 497 468 441 417 387 369 361 346 347 341 328 330 335 337 336 334 333 332
186 183 183 195 138 196 204 206 161 234 178 241 258 214 225 236 247 259 530 465 424 422 404 374 355 347 347 337 339 328 320 317 320 323 323 324 327 330
174 189 184 193 138 207 218 230 225 179 266 217 229 228 243 253 527 489 426 412 392 397 383 344 347 332 337 325 322 318 320 311 307 312 321 320 324 335
190 188 134 190 215 221 223 173 267 258 216 240 234 243 260 502 438 406 389 385 386 371 356 326 337 327 319 309 300 302 310 313 317 323 320 399 394 399
194 194 210 214 227 172 206 259 229 221 232 241 246 435 465 418 396 381 376 384 364 352 348 320 335 316 319 308 312 313 307 307 312 313 393 415 389 370
152 212 222 227 188 262 212 219 235 229 242 253 452 428 405 391 380 366 355 355 326 336 343 314 315 311 316 306 306 307 307 308 302 327 399 382 379 374
220 165 209 264 253 220 216 230 240 238 369 410 382 359 352 343 336 346 360 340 328 321 328 305 311 299 298 307 305 309 307 303 300 357 374 372 336 338
205 263 253 220 210 223 229 239 242 431 400 372 350 341 328 319 314 318 318 350 319 308 302 301 296 289 291 289 304 309 304 299 318 378 369 366 331 339
253 235 216 221 219 235 242 350 421 393 369 346 335 326 336 365 362 338 323 327 320 305 304 302 295 293 287 286 296 314 299 303 337 381 368 343 342 354
215 207 210 228 235 241 446 408 387 359 337 328 338 396 394 402 405 399 257 242 336 325 306 295 298 294 279 285 295 306 295 322 384 374 342 315 343 382
202 220 230 238 291 436 404 378 348 332 332 389 398 401 400 267 353 246 417 429 411 412 334 311 307 309 286 284 298 297 302 344 367 320 293 295 332 384
225 234 238 384 429 399 366 339 327 394 379 365 367 382 334 314 400 395 401 405 410 419 414 383 307 268 281 290 300 298 321 369 327 286 288 350 395 371
231 268 447 426 394 357 333 346 375 353 362 353 371 384 395 394 394 386 394 395 400 422 417 366 294 274 275 299 295 322 377 336 288 369 404 350 362 396
325 472 425 387 350 329 350 337 336 326 337 334 373 377 382 380 388 390 391 399 398 424 355 360 276 276 288 295 318 362 341 284 364 376 341 346 363 406
481 426 385 350 329 330 331 320 319 316 330 370 371 378 379 396 392 388 398 406 401 347 363 288 280 274 298 322 366 333 286 339 371 341 335 356 385 410
434 387 353 327 319 326 314 315 309 302 328 373 376 393 373 380 395 418 422 424 389 375 295 279 269 296 325 356 330 286 347 353 372 356 332 386 383 400
393 354 326 318 320 312 272 310 312 312 327 365 388 405 377 386 414 425 409 376 368 291 274 265 296 344 314 336 320 349 352 344 362 362 374 381 395 395
355 328 312 320 318 295 302 316 303 312 327 362 392 420 393 394 402 387 383 361 292 274 261 295 369 315 290 324 335 341 361 352 349 356 363 374 385 398

GFSNE_2pvu_pres_012.txt.gz
Presure
232 234 225 222 216 210 219 202 204 204 188 193 188 184 189 192 196 195 196 199 178 146 212 230 254 296 274 179 155 176 235 242 248 244 258 260 271 281
231 234 221 224 222 216 212 206 204 208 200 197 183 190 189 197 196 204 136 172 212 231 255 297 227 177 211 218 191 246 218 217 321 253 518 514 512 513
228 229 234 235 233 225 220 218 217 217 207 198 192 185 195 200 129 181 184 231 250 284 185 184 221 247 208 258 268 491 489 466 457 456 450 374 438 464
227 217 236 235 236 230 225 219 214 215 208 196 187 193 154 140 156 187 238 257 175 200 240 242 242 264 281 481 458 435 423 416 406 392 397 390 416 390
221 217 212 228 240 238 233 226 219 193 190 197 180 170 157 222 231 254 179 217 240 243 251 260 375 462 443 427 412 386 380 373 366 365 358 369 355 350
230 220 207 213 248 247 234 225 192 190 197 132 207 214 226 241 186 214 227 235 250 255 356 443 433 416 409 395 368 358 352 354 363 353 341 333 332 334
235 225 213 214 246 238 194 188 196 179 185 213 219 230 220 215 225 236 241 251 265 441 429 397 397 398 378 357 344 342 343 335 336 333 329 320 321 323
271 217 213 235 183 190 194 192 196 208 219 226 247 271 236 226 236 247 253 426 391 403 402 381 410 374 356 343 332 327 332 323 317 313 317 314 313 305
213 225 217 188 193 191 195 141 216 220 237 264 269 215 240 241 251 284 389 367 353 365 385 372 376 350 342 335 333 323 323 321 311 313 314 313 309 314
208 188 191 190 196 205 214 215 234 249 278 242 229 240 247 257 410 391 368 346 332 329 334 363 351 337 341 336 325 319 318 316 315 314 314 314 312 305
189 193 198 203 217 215 230 260 273 266 220 236 243 253 342 394 380 365 346 337 327 319 328 319 355 342 338 321 312 308 303 307 308 312 317 313 302 326
199 206 217 222 232 239 272 263 216 226 239 246 257 396 378 362 349 348 414 414 411 400 394 346 324 341 331 318 313 295 288 294 295 308 315 299 306 344
217 220 231 239 265 259 209 223 232 242 250 306 381 360 362 393 380 373 375 420 431 421 377 357 292 251 323 309 314 307 286 287 296 307 303 305 337 394
231 254 258 249 194 235 225 239 246 256 395 367 350 377 364 355 357 376 403 409 362 426 317 250 248 247 238 317 306 314 287 286 295 304 301 330 390 370
252 248 201 233 231 232 242 250 396 383 355 357 354 350 337 345 398 400 396 409 402 404 411 421 433 437 312 315 306 311 291 296 301 301 323 379 336 300
244 234 237 232 235 244 273 406 373 351 350 346 339 325 327 396 396 392 390 396 394 389 405 417 430 424 344 327 311 311 295 302 306 327 369 332 303 320
231 232 227 238 255 447 405 371 346 336 341 331 328 324 397 402 402 391 408 394 403 400 393 408 426 370 348 306 289 282 303 306 322 356 324 294 415 365
234 239 258 313 453 405 370 347 347 337 326 327 320 375 406 412 380 385 401 421 412 407 405 380 362 356 321 275 278 304 310 356 348 292 292 356 340 346
302 324 345 458 412 369 341 343 331 321 325 253 355 386 423 422 391 409 426 438 429 424 352 364 313 284 274 283 302 356 311 330 297 372 386 397 333 333
320 355 468 418 374 338 335 333 318 312 249 346 362 399 446 400 406 423 433 411 347 367 312 295 284 282 296 368 351 329 303 309 353 370 365 372 377 401
359 478 425 380 336 323 335 318 311 248 322 351 382 408 467 405 404 394 378 369 329 298 286 280 281 364 344 323 312 317 355 350 364 357 357 376 381 382
486 427 377 337 322 331 320 308 250 284 319 359 393 427 400 384 379 372 327 297 288 280 271 354 338 306 292 293 337 344 342 370 361 361 364 377 391 395
422 375 335 320 328 321 313 261 301 291 334 361 392 384 364 372 332 299 287 279 272 258 342 324 295 290 310 319 331 335 352 366 351 348 361 390 368 379

GFSNE_2pvu_pres_018.txt.gz
Presure
234 236 226 237 233 255 259 258 252 251 246 250 252 253 247 245 241 238 232 234 241 239 239 239 242 250 248 254 258 259 257 254 229 195 195 204 208 213
228 228 231 231 228 254 249 252 248 248 247 249 248 252 255 257 261 263 254 242 234 237 234 228 227 231 237 247 265 264 197 196 204 207 215 217 223 200
227 231 231 239 245 251 241 239 239 240 244 245 243 244 252 253 254 260 266 269 270 255 236 234 230 223 244 246 196 203 211 216 221 226 231 239 278 279
230 229 224 241 247 238 231 229 234 238 243 250 252 254 255 269 275 277 274 276 279 271 253 223 236 217 203 207 216 220 227 237 264 281 273 263 240 232
224 225 239 236 235 236 232 236 243 257 260 276 266 255 249 245 242 245 245 241 236 233 225 202 206 213 220 232 249 281 273 260 251 231 239 309 431 438
205 210 234 230 229 234 241 282 269 260 242 231 233 230 227 225 225 222 209 211 200 195 211 220 254 280 272 261 244 234 315 402 405 380 378 370 379 406
208 224 223 231 277 292 272 234 222 220 215 212 210 210 203 198 202 205 209 166 265 271 260 250 248 235 223 361 400 403 437 414 362 354 356 354 341 379
222 231 275 288 241 221 218 208 204 203 200 193 197 202 213 270 180 274 251 244 236 254 276 406 395 386 378 376 369 374 382 398 431 347 334 339 325 360
239 274 234 221 214 202 197 191 194 202 213 217 236 270 267 257 242 234 244 260 343 406 392 381 370 359 355 360 384 436 445 446 401 405 354 331 323 345
260 219 217 194 189 192 194 209 213 249 243 251 254 249 238 237 248 263 321 373 390 378 369 370 354 402 396 410 413 421 446 457 464 424 357 336 333 334
201 186 192 194 199 208 239 246 258 249 243 238 233 231 240 263 309 325 399 383 367 358 354 420 446 442 433 403 398 417 432 441 457 435 353 336 330 259
190 195 202 205 211 269 257 242 236 234 228 239 233 260 271 319 369 393 378 361 349 386 431 470 455 419 404 399 393 402 409 426 443 425 348 336 252 258
203 205 247 272 255 238 234 231 230 233 245 257 263 297 329 369 383 367 357 343 436 469 462 439 432 425 421 421 408 398 404 423 446 413 339 282 242 322
244 270 251 193 229 228 228 232 245 252 260 294 324 348 400 379 360 350 334 452 445 445 453 456 456 448 438 422 404 407 427 442 418 399 320 324 334 314
238 224 226 224 224 236 245 252 263 267 324 342 421 393 367 355 343 333 457 424 430 443 448 449 434 417 425 426 422 422 423 430 391 330 315 323 327 303
222 222 223 237 168 252 268 301 326 338 380 421 390 354 344 334 335 419 408 407 354 366 370 362 363 360 366 358 367 373 367 345 330 314 313 311 305 310
219 230 247 255 285 314 331 341 381 456 414 380 350 336 324 326 381 394 371 362 340 313 310 306 302 294 291 290 300 298 304 309 314 300 302 293 297 304
247 301 334 360 377 383 408 484 392 400 367 342 331 315 323 373 382 354 330 312 300 295 287 283 280 293 333 346 346 343 340 337 333 338 346 343 362 369
407 409 607 590 569 539 365 399 390 351 335 319 324 325 370 372 335 316 304 293 286 280 269 265 330 323 312 309 340 327 333 343 292 370 379 371 365 370
611 623 625 408 401 435 402 369 342 326 306 282 323 312 350 331 311 300 289 285 279 267 318 315 305 314 314 321 343 340 320 335 338 365 361 363 367 366
713 621 482 436 403 367 341 326 307 288 293 314 206 346 337 309 299 289 281 277 277 322 311 318 324 325 326 333 343 355 366 357 360 361 360 372 358 340
451 416 379 349 331 314 322 292 277 312 326 317 281 369 326 299 293 286 284 272 330 310 320 322 318 321 339 349 360 369 368 382 387 355 349 343 345 351
351 346 338 340 332 301 283 330 327 325 322 212 293 362 315 295 290 282 275 333 317 312 316 319 332 348 369 386 382 380 343 333 324 322 322 335 338 342